Погода в Азигулове

Россия / Свердловская область     56°32′03″N   58°17′22″E
темп.,
°C
ветер,
м/с
пор.,
м/с
влажн.,
%
обл.,
%
осадки,
мм/ч
давл.,
гПа
погр.,
м
13 апреля, вт
вт1323:00+4св2291100 0.0 104012
02:00+3в22894 0.0 104010
05:00+3в11862 0.0 104110
08:00+4вюв22817 0.0 104169
11:00+9юв456896 0.0 1039410
14:00+11ю45735 0.0 1038558
17:00+12ююз44796 0.0 1037414
20:00+11ююз3583100 0.0 1035105
14 апреля, ср
ср1423:00+10ююз3787100 0.0 1034174
02:00+8юз2388100 0.0 103433
05:00+7ююз228921 0.0 103423
08:00+7ююз2488100 0.0 1034107
11:00+12юз346877 0.0 1032417
14:00+16зюз455651 0.0 1031947
17:00+17зюз445510 0.0 10291003
20:00+14зюз33715 0.0 102826
15 апреля, чт
чт1523:00+11зюз117829 0.0 102810
02:00+10ююз118273 0.0 102710
05:00+8ююз228654 0.0 102610
08:00+9ююз23865 0.0 102691
11:00+14юз46625 0.0 1024567
14:00+16юз67320 0.0 10221061
17:00+16зюз57375 0.0 10201180
20:00+12зюз34575 0.0 101955
16 апреля, пт
пт1623:00+10зюз22680 0.0 101917
02:00+8зюз22760 0.0 101811
05:00+7з1180100 0.0 101710
08:00+8з227836 0.0 101772
11:00+10с348286 0.0 1016468
14:00+6св7880100 0.0 1018476
17:00+3св61195100 0.5 1019488
20:00+3св61090100 0.1 1020639
17 апреля, сб
сб1723:00+2св488895 0.1 1020519
02:00+1всв4687100 0.0 1020478
05:00+1ссв237818 0.0 1019159
08:00+1ссз2280100 0.0 1018242
11:00+4ссз674577 0.1 10171779
14:00+4ссз8951100 0.4 10161744
17:00+3ссз10115075 0.8 10171700
20:000ссз811575 0.0 10201111